User: anonymous   Login
Location: Oshawa
(43.9000°N, 78.8670°W)
Time: 16:38:43
(UTC-04:00)
Language:

Cosmos 839 Rocket - Orbit

View from above orbital plane
View from above orbital plane
View from above satellite
View from above satellite

Ground track
Ground track

The orbit data is extracted from the following two-line orbital elements,

1 09013U 76067B   15141.76928469  .00000036  00000-0  11920-3 0  9997
2 09013 065.8675 037.0775 0713556 009.1011 352.2580 12.35317294753096
Epoch (UTC): 21 May 2015 18:27:46
Eccentricity: 0.0713556
inclination: 65.8675°
perigee height: 962 km
apogee height: 2090 km
right ascension of ascending node: 37.0775°
argument of perigee: 9.1011°
revolutions per day: 12.35317294
mean anomaly at epoch: 352.2580°
orbit number at epoch: 75309

The dashed part of the orbit path shows where the satellite is in the earth's shadow,  

DLR